Regional Weather Roundup
Issued by NWS Jackson, KY

Home | Current Version | Previous Version | Text Only | Print | Product List | Glossary Off
Versions: 1 2 3 4 5 6 7 8 9 10 11 12 13 14 15 16 17 18 19 20 21 22 23 24 25 26 27 28 29 30 31 32 33 34 35 36 37 38 39 40 41 42 43 44 45 46 47 48 49 50

000
ASUS43 KJKL 020110
RWRJKL

EAST KENTUCKY HOURLY WEATHER ROUNDUP
NATIONAL WEATHER SERVICE JACKSON KY
900 PM EDT FRI AUG 01 2014

NOTE: "FAIR" INDICATES FEW OR NO CLOUDS BELOW 12,000 FEET WITH
NO SIGNIFICANT WEATHER AND/OR OBSTRUCTIONS TO VISIBILITY.

* THESE REPORTS ARE NOT UNDER NWS QUALITY CONTROL AND MAY NOT
  REPORT WEATHER SUCH AS PRECIPITATION AND FOG.

KYZ079-080-083-085-087-088-110-112-115-119-120-020200
...EASTERN KENTUCKY...

CITY           SKY/WX    TMP DP  RH WIND       PRES   REMARKS
JACKSON        PTCLDY    75  62  64 CALM      30.07S
LONDON         PTCLDY    74  67  78 CALM      30.07R
SOMERSET*      CLEAR     77  63  61 CALM      30.07R
MONTICELLO*    PTCLDY    72  67  84 CALM      30.07S
MIDDLESBORO*   CLOUDY    73  67  79 CALM      30.07S
HARLAN APT*    CLEAR     72  63  73 MISG      30.09R
PIKEVILLE APT* MOCLDY    73  61  64 SE5       30.09R
BIG SANDY*     PTCLDY    73  64  73 CALM      30.07S
MOREHEAD APT*    N/A     75  64  69 CALM      30.09R
$$

KYZ035-036-041-042-044-050-067-078-099-020200
...CENTRAL KENTUCKY...

CITY           SKY/WX    TMP DP  RH WIND       PRES   REMARKS
MT STERLING*   MOCLDY    75  64  69 CALM      30.08R
FLEMING/MASON* CLEAR     77  61  57 CALM      30.08R
DANVILLE*      MOCLDY    72  64  78 CALM      30.07S
RICHMOND*      PTCLDY    75  63  64 CALM      30.06R
LEXINGTON      CLEAR     76  59  55 NE7       30.07R
FRANKFORT      CLEAR     74  62  66 CALM      30.05R
$$

KYZ091>093-OHZ055-061-077-WVZ005-015-034-035-042-020200
...SOUTHERN OHIO/WEST VIRGINIA...

CITY           SKY/WX    TMP DP  RH WIND       PRES   REMARKS
COVINGTON      PTCLDY    75  60  59 CALM      30.06S
COLUMBUS       MOCLDY    79  63  57 NE5       30.07R
DAYTON         MOCLDY    76  62  62 N3        30.08S
WILMINGTON     CLEAR     71  64  78 E3        30.07S
HUNTINGTON     LGT RAIN  69  68  96 W3        30.06R FOG
CHARLESTON     PTCLDY    73  64  73 CALM      30.07S
PINEVILLE*     PTCLDY    67  64  92 MISG      30.18R
BECKLEY        CLEAR     65  55  70 SE7       30.17S
BLUEFIELD      CLEAR     63  55  75 VRB5      30.19S
$$

VAZ002-007-008-TNZ017-027-036-066-071-020200
...SOUTHWEST VIRGINIA/EAST TENNESSEE...

CITY           SKY/WX    TMP DP  RH WIND       PRES   REMARKS
WISE*          CLEAR     66  57  72 S6        30.16S
JONESVILLE*      N/A     73  64  73 CALM      30.10R
ABINGDON*      CLEAR     69  59  72 E12       30.14R
BRISTOL        PTCLDY    70  59  68 CALM      30.10S
KNOXVILLE      MOCLDY    79  65  62 CALM      30.03S
OAK RIDGE      CLOUDY    78  65  63 CALM      30.05S
CROSSVILLE     MOCLDY    72  64  76 CALM      30.10S
NASHVILLE      MOCLDY    81  62  52 CALM      30.03S
$$

...KEY TO REMARKS...
VSB - VISIBILITY IN MILES
WCI - WIND CHILL INDEX
HX  - HEAT INDEX

$$


USA.gov is the U.S. government's official web portal to all federal, state and local government web resources and services.